Location: downtown San Diego
(32.7310°N, 117.1990°W)
Time: 18:37:34
(UTC-07:00)

Lacrosse 5 - Pass Details

Date: 14 June 2018
Orbit: 714 x 724 km, 57.0° (Epoch: 20 August)

Event Time Altitude Azimuth Distance (km) Brightness Sun altitude
Exits shadow 23:41:06 40° 318° (NW) 1,042 3.0 -31.6°
Drops below altitude 10° 23:45:45 10° 24° (NNE) 2,197 4.9 -31.9°
Sets 23:48:16 0° 32° (NNE) 3,121 5.7 -32.1°
